Lanai City, HI

12:47 AM HST on January 24, 2017 (GMT -1000)
Lanai City

Weather History for PHNY - June, 2013

Change the Weather History Date:

Thursday, June 27, 2013

  Actual Average Record
Temperature  
Mean Temperature 74 °F -  
Max Temperature 83 °F 81 °F 86 °F (1993)
Min Temperature 64 °F 64 °F 56 °F (1955)
Cooling Degree Days 10    
Growing Degree Days 24 (Base 50)    
Moisture  
Dew Point 64 °F    
Average Humidity 72    
Maximum Humidity 93    
Minimum Humidity 49    
Precipitation  
Precipitation 0.00 in - - ()
Sea Level Pressure  
Sea Level Pressure 30.01 in    
Wind  
Wind Speed 11 mph (NE)    
Max Wind Speed 23 mph    
Max Gust Speed 30 mph    
Visibility 10 miles    
Events      
Averages and records for this station are not official NWS values.
T = Trace of Precipitation, MM = Missing Value Source: NWS Daily Summary

Daily Weather History Graph

Daily Weather History Graph

Search for Another Location

Airport or City:

Trip Planner

Search our weather history database for the weather conditions in past years. The results will help you decide how hot, cold, wet, or windy it might be!

Date:

Astronomy

Jun. 27, 2013 Rise Set
Actual Time 5:49 AM HST 7:12 PM HST
Civil Twilight 5:24 AM HST 7:37 PM HST
Nautical Twilight 4:55 AM HST 8:06 PM HST
Astronomical Twilight 4:24 AM HST 8:37 PM HST
Moon 11:00 PM HST (6/27) 10:23 AM HST (6/27)
Length of Visible Light 14h 12m
Length of Day
13h 23m
Waning Gibbous, 74% of the Moon is Illuminated
Jun 27
Waning Gibbous
Jun 29
Last Quarter
Jul 7
New
Jul 15
First Quarter
Jul 22
Full

Hourly Weather History & Observations

Time (HST) Temp. Heat Index Dew Point Humidity Pressure Visibility Wind Dir Wind Speed Gust Speed Precip Events Conditions
12:56 AM 68.9 °F - 64.9 °F 87% 30.01 in 10.0 mi NE 10.4 mph - 0.00 in   Clear
1:56 AM 68.0 °F - 65.8 °F 93% 29.99 in 10.0 mi NNE 10.4 mph - N/A   Clear
2:56 AM 66.9 °F - 63.0 °F 87% 29.99 in 10.0 mi ENE 8.1 mph - N/A   Clear
3:56 AM 66.9 °F - 63.0 °F 87% 29.99 in 10.0 mi East 8.1 mph - N/A   Clear
4:56 AM 66.9 °F - 63.0 °F 87% 29.98 in 10.0 mi ENE 11.5 mph - N/A   Clear
5:56 AM 66.9 °F - 63.0 °F 87% 29.98 in 10.0 mi NE 13.8 mph - N/A   Clear
6:56 AM 70.0 °F - 61.9 °F 75% 30.00 in 10.0 mi East 8.1 mph - N/A   Clear
7:56 AM 73.9 °F - 64.9 °F 73% 30.02 in 10.0 mi NNE 12.7 mph - N/A   Clear
8:56 AM 77.9 °F - 63.0 °F 60% 30.02 in 10.0 mi NE 9.2 mph - N/A   Clear
9:56 AM 81.0 °F 81.9 °F 61.9 °F 52% 30.01 in 10.0 mi NNE 10.4 mph - N/A   Clear
10:56 AM 82.9 °F 83.7 °F 61.9 °F 49% 30.00 in 10.0 mi NE 10.4 mph - N/A   Clear
11:36 AM 77.0 °F - 64.4 °F 65% 30.07 in 10.0 mi Variable 4.6 mph - N/A   Overcast
11:56 AM 79.9 °F - 63.9 °F 58% 30.00 in 10.0 mi NNE 13.8 mph - N/A   Mostly Cloudy
12:09 PM 82.4 °F 83.9 °F 64.4 °F 54% 30.06 in 10.0 mi NE 16.1 mph - N/A   Partly Cloudy
12:56 PM 82.9 °F 84.2 °F 63.9 °F 52% 29.98 in 10.0 mi NNE 15.0 mph - N/A   Clear
1:56 PM 83.8 °F 85.1 °F 63.9 °F 51% 29.97 in 10.0 mi NNE 17.3 mph - N/A   Partly Cloudy
2:56 PM 82.9 °F 84.6 °F 64.9 °F 54% 29.96 in 10.0 mi NE 18.4 mph - N/A   Partly Cloudy
3:56 PM 81.0 °F 83.0 °F 65.8 °F 60% 29.96 in 10.0 mi NE 18.4 mph - N/A   Clear
4:56 PM 79.0 °F - 63.9 °F 60% 29.96 in 10.0 mi NE 23.0 mph 29.9 mph N/A   Clear
6:56 PM 73.9 °F - 63.0 °F 68% 29.99 in 10.0 mi NE 16.1 mph - N/A   Clear
7:56 PM 70.0 °F - 63.0 °F 78% 30.00 in 10.0 mi SE 4.6 mph - N/A   Clear
8:56 PM 70.0 °F - 63.9 °F 81% 30.01 in 10.0 mi NE 8.1 mph - N/A   Scattered Clouds
9:03 PM 69.8 °F - 64.4 °F 83% 30.07 in 10.0 mi NNE 5.8 mph - N/A   Mostly Cloudy
9:25 PM 69.8 °F - 62.6 °F 78% 30.08 in 10.0 mi ENE 5.8 mph - N/A   Partly Cloudy
9:56 PM 68.0 °F - 63.0 °F 84% 30.02 in 10.0 mi NNE 8.1 mph - N/A   Clear
10:56 PM 66.9 °F - 63.0 °F 87% 30.03 in 10.0 mi East 6.9 mph - N/A   Clear
11:56 PM 64.9 °F - 61.9 °F 90% 30.02 in - NE 6.9 mph - N/A   Clear